Regional Weather Roundup
Issued by NWS Lake Charles, LA

Home | Current Version | Previous Version | Text Only | Print | Product List | Glossary On
Versions: 1 2 3 4 5 6 7 8 9 10 11 12 13 14 15 16 17 18 19 20 21 22 23 24 25 26 27 28 29 30 31 32 33 34 35 36 37 38 39 40 41 42 43 44 45 46 47 48 49 50
000
ASUS44 KLCH 290610
RWRLCH
RWRLCH
REGIONAL WEATHER ROUNDUP
NATIONAL WEATHER SERVICE LAKE CHARLES LA
1200 AM CST THU JAN 29 2015

Note: "fair" indicates few or no clouds below 12,000 feet with no
significant weather and/or obstructions to visibility.


ACROSS SOUTHEAST TEXAS

CITY           SKY/WX    TMP DP  RH WIND       PRES   REMARKS
BEAUMONT       FOG       50  50 100 SE5       30.18R VSB<1/4
BEAUMONT CITY  FOG       54  54 100 SE5       30.18S VSB 3/4
ORANGE         FOG       55  55 100 CALM      30.20R VSB 1/4
JASPER         CLOUDY    54  53  96 S5        30.20R FOG
$$

ACROSS CENTRAL LOUISIANA

CITY           SKY/WX    TMP DP  RH WIND       PRES   REMARKS
LEESVILLE      CLEAR     54  51  90 S10       30.17F
FULLERTON        N/A     54  47  77 CALM      30.16S
ALEXANDRIA INT CLEAR     51  42  71 SE7       30.18R
ESLER FIELD    CLEAR     50  43  77 CALM      30.20R
DERIDDER         N/A     52  48  87 CALM      30.21R
OAKDALE        MOCLDY    41  40  94 CALM      30.21R
OPELOUSAS        N/A     48  45  88 CALM      30.21S
$$

ACROSS SOUTHWEST AND SOUTH CENTRAL LOUISIANA

CITY           SKY/WX    TMP DP  RH WIND       PRES   REMARKS
SULPHUR        CLEAR     55  55 100 SE3       30.20R FOG
LAKE CHARLES   FOG       50  50 100 SE6       30.19S VSB 3/4
CHENNAULT INT  FOG       49  49 100 SE5       30.20S VSB 3/4
CAMERON PHI    CLEAR     55  55 100 SE6       30.22F FOG
DEQUINCY         N/A     49  49 100 CALM      30.19S FOG
JENNINGS         N/A     53  52  99 SE5       30.20S
LAFAYETTE      CLEAR     53  49  86 S3        30.21S
NEW IBERIA     CLEAR     51  48  89 CALM      30.22R
ABBEVILLE        N/A     52  51  95 SE6       30.21F
PATTERSON      CLEAR     54  48  82 SE7       30.22S
SALT POINT       N/A     52  51  97 E5        30.20R
$$

SELECTED SITES ACROSS THE REGION

CITY           SKY/WX    TMP DP  RH WIND       PRES   REMARKS
HOUSTON BUSH   PTCLDY    57  56  96 S3        30.17R
HOUSTON HOBBY  PTCLDY    56  56 100 S3        30.17R
GALVESTON      CLEAR     59  59 100 S7        30.19R
COLLEGE STAT   CLEAR     58  56  93 S9        30.15R
CONROE         CLEAR     46  43  89 CALM      30.17R
HUNTSVILLE     CLEAR     58  51  78 S10       30.15R
LUFKIN         CLEAR     56  50  80 S6        30.15R
SHREVEPORT     PTCLDY    58  45  62 S10       30.11R
MONROE         CLEAR     56  42  59 S10       30.15S
NATCHEZ MS     CLEAR     54  39  58 S8        30.20F
BATON ROUGE    CLEAR     46  41  82 CALM      30.22S
N.O. INTL ARPT PTCLDY    49  44  83 CALM      30.23R
SLIDELL        PTCLDY    43  39  86 CALM      30.22S
$$

MARINE REPORTS

STATION/POSITION TIME  TEMP    WIND        PRES    VSBY  WAVE
                       AIR SEA DIR/SP/G                  HT/PER
                 (UTC) (F)     (DEG/KT/KT) (MB)    (MI)  (FT/S)
BUOY 30 S HIGH I 0600   59 57  140/  4/  6 1021.7R         1/ 4
SEA RIM ST PARK  0600   58     150/  7/  9 1022.5F
PORT ARTHUR      0600      54  160/  3/  5 1022.2R
SABINE PASS N    0600   58 56  170/  9/ 11 1021.9R
TEXAS POINT      NOT AVBL
CALCASIEU PASS   0600   57 56  150/  5/  5   N/A
LK CHARLES BEACH 0600   55 53              1022.4S
MARSH ISLAND     0500   59     150/ 12/ 14   N/A
FRESH WATER LOCK 0600   57 58  120/  4/  4 1022.7F
AMERADA PASS     0600   54 49  110/  3/  4 1022.8S
$$


USA.gov is the U.S. government's official web portal to all federal, state and local government web resources and services.